Location: Bear Branch Nature Center
(39.6445°N, 76.9901°W)
Time: 08:46:45
(UTC-04:00)

Daily predictions for brighter satellites

Satellite Brightness Start Highest point End
(mag) Time Altitude Azimuth Time Altitude Azimuth Time Altitude Azimuth
Cosmos 1624 Rocket 4.1 18:37:37 10° NNW 18:42:52 88° ENE 18:48:07 10° SSE
Cosmos 2366 rocket 4.0 18:38:34 10° S 18:44:42 64° E 18:50:48 10° NNE
Cosmos 1626 2.5 18:41:25 10° N 18:45:00 43° E 18:48:33 10° SSE
SL-14 R/B 3.8 18:41:20 10° NNW 18:45:08 64° W 18:48:58 10° S
CZ-2C R/B 3.7 18:41:27 10° NNE 18:45:59 83° ESE 18:50:26 10° SSW
Cosmos 1371 Rocket 4.5 18:40:46 10° NNW 18:46:08 72° WSW 18:51:26 10° S
ALOS 3.3 18:43:19 10° ESE 18:47:01 24° ENE 18:50:44 10° NNE
IRS-1A Rocket 4.4 18:43:00 10° SSE 18:48:50 78° ENE 18:54:45 10° NNW
Cosmos 2360 Rocket 2.4 18:46:54 10° NNW 18:52:24 50° ENE 18:57:53 10° SE
APEX 4.4 18:51:14 10° SSE 18:53:25 16° ESE 18:55:24 10° ENE
COSMOS 2428 3.8 18:50:52 10° N 18:55:30 25° NE 19:00:06 10° ESE
SL-8 Rocket 4.3 18:51:49 10° SSW 18:57:58 74° W 19:04:14 10° N
Cosmos 2333 Rocket 3.9 18:55:07 10° NNE 18:58:20 15° NE 19:01:33 10° E
Cosmos 1833 4.2 18:54:18 10° SSW 18:59:58 75° ESE 19:05:37 10° NNE
Cosmos 2322 Rocket 3.0 18:55:01 10° NNW 19:00:31 57° WSW 19:06:00 10° S
MONITOR-E 4.5 18:57:50 10° SSE 19:00:47 42° ENE 19:03:43 10° N
BREEZE-M DEB (TANK) 4.1 18:56:57 10° NW 19:00:57 52° NNE 19:15:41 10° ESE
COSMO-SKYMED 1 2.6 18:57:11 10° NNE 19:01:28 56° E 19:05:44 10° S
Cosmos 2219 4.2 18:58:16 10° SSE 19:02:55 26° ESE 19:07:34 10° NE
Abrixas 3.9 19:07:36 10° S 19:08:44 13° SE 19:09:11 12° SE
Abrixas rocket 4.3 19:09:51 10° WNW 19:12:19 19° N 19:14:48 10° NE
FENGYUN 3A 3.9 19:11:57 10° SE 19:17:06 49° ENE 19:22:19 10° N
Cosmos 1315 Rocket 2.9 19:13:49 10° N 19:17:49 53° ENE 19:21:50 10° SSE
Cosmos 44 3.4 19:15:13 10° S 19:19:18 40° ESE 19:23:08 11° NE
Meteor 2-1 Rocket 4.3 19:15:26 10° S 19:21:12 85° E 19:27:07 10° N
EO 1 Del DPAF 3.8 19:17:30 10° N 19:21:19 63° WNW 19:25:06 10° SSW
Cosmos 1821 Rocket 4.3 19:15:49 10° SSE 19:21:28 40° E 19:27:12 10° NNE
YAOGAN 1 3.4 19:19:31 10° S 19:23:45 54° W 19:28:01 10° NNW
Cosmos 2322 3.7 19:19:29 10° NNW 19:25:14 74° ENE 19:30:55 10° SSE
USA 267 4.1 19:25:18 16° ENE 19:29:27 29° SE 19:34:59 10° S
Cosmos 1269 Rocket 4.2 19:26:35 10° S 19:31:36 46° ESE 19:36:39 10° NNE
Cosmos 1633 Rocket 4.4 19:28:44 10° NNE 19:31:28 20° ENE 19:31:28 20° ENE
Cosmos 2151 3.5 19:27:47 10° NNW 19:32:02 64° W 19:36:13 10° S
SPOT 3 Rocket 3.7 19:28:33 10° SSE 19:33:44 81° WSW 19:38:59 10° NNW
DMSP B5D1-3 4.4 19:29:13 10° NNE 19:34:21 76° ESE 19:39:29 10° S
Cosmos 1727 Rocket 4.4 19:28:22 10° NNW 19:34:42 69° W 19:40:58 10° S
ASTRO E2 4.4 19:36:18 10° WSW 19:39:32 24° S 19:41:35 16° SE
Cosmos 468 4.5 19:35:00 10° SSW 19:40:12 87° WNW 19:45:28 10° NNE
SJ-6B 3.6 19:40:35 28° ENE 19:40:35 28° ENE 19:43:30 10° N
Aureole 2 4.2 19:37:17 10° NNW 19:40:24 86° WSW 19:43:54 10° SSE
RESURS DK-1 2.9 19:36:35 10° NNW 19:40:40 60° WSW 19:44:42 10° S
Cosmos 2219 Rocket 2.8 19:35:55 10° N 19:41:00 34° ENE 19:43:16 25° E
FREGAT/IRIS 3.4 19:42:27 33° NE 19:42:27 33° NE 19:44:37 10° N
Cosmos 44 Rocket 3.1 19:38:09 10° SSW 19:42:50 71° ESE 19:46:44 15° NE
SL-8 R/B 4.4 19:40:05 10° W 19:44:44 47° NNW 19:47:49 20° NE
Meteor 2-10 4.4 19:41:34 10° SSE 19:46:10 37° E 19:50:50 10° NNE
Cosmos 1726 2.0 19:44:32 10° S 19:48:10 58° E 19:51:48 10° NNE
Cosmos 1452 Rocket 4.0 19:43:22 10° NNW 19:48:33 64° WSW 19:53:44 10° S
Cosmos 2098 Rocket 3.2 19:44:31 10° S 19:48:47 69° E 19:54:18 10° NNE
Cosmos 2058 4.5 19:46:06 10° NNW 19:49:59 38° W 19:53:49 10° SSW
Cosmos 2123 Rocket 4.3 19:45:45 10° N 19:51:40 43° ENE 19:57:35 10° SSE
Atlas Centaur 2 3.5 19:47:53 10° WSW 19:51:47 25° S 19:54:54 16° SE
BREEZE-M DEB (TANK) 3.3 19:52:26 10° W 19:54:01 20° SW 19:54:38 18° SSW
Delta 2 Rocket 3.5 19:52:04 10° WSW 19:55:36 43° S 19:56:09 39° SSE
Cosmos 1605 Rocket 4.3 19:50:12 10° SSE 19:55:44 37° E 20:01:16 10° NNE
Gbstr 26 Del rocket 4.0 19:51:05 10° NW 19:56:04 49° NNE 19:58:17 34° E
Aureole 2 Rocket 3.2 19:54:55 10° N 19:58:14 41° NE 19:58:14 41° NE
Cosmos 2221 3.1 19:54:43 10° SSW 19:58:58 60° W 20:03:17 10° N
Cosmos 2333 4.1 19:55:13 10° NNW 20:00:58 77° ENE 20:05:29 17° SSE
CZ-4C R/B 2.0 19:59:07 10° SSW 20:04:15 84° ESE 20:08:29 19° NE
BREEZE-M DEB (TANK) 4.4 20:06:20 10° NW 20:07:10 14° NNW 20:07:10 14° NNW
Cosmos 1110 Rocket 4.4 20:02:48 10° N 20:07:45 40° ENE 20:07:45 40° ENE
Cosmos 921 Rocket 4.4 20:03:52 10° NNW 20:08:01 40° W 20:12:04 10° S
H-2A R/B 2.6 20:07:33 32° SSE 20:09:15 90° ENE 20:13:12 10° NNW
Iridium 4 Rocket 4.1 20:05:47 10° SSW 20:11:14 64° W 20:17:03 10° N
BREEZE-M R/B 4.3 20:09:54 10° SSW 20:10:42 18° SSW 20:10:42 18° SSW
Cosmos 2237 Rocket 2.9 20:08:32 10° N 20:13:11 34° NE 20:13:11 34° NE
In-Cosmos 22 Rocket 4.3 20:08:12 10° N 20:13:49 55° ENE 20:15:17 43° SE
DELTA 2 R/B (1) 3.9 20:12:04 10° W 20:17:33 57° SSW 20:19:09 42° SSE
Cosmos 2227 Rocket 3.4 20:14:55 10° S 20:17:28 25° SSE 20:17:28 25° SSE
Resurs 01 Rocket 3.4 20:23:46 20° N 20:23:46 20° N 20:25:13 10° N
SL-16 R/B 4.1 20:19:57 10° N 20:21:48 16° NNE 20:21:48 16° NNE
ALOS 4.0 20:20:04 10° SSW 20:24:16 33° W 20:28:30 10° NNW
Cosmos 1300 4.3 20:29:31 10° SSW 20:31:26 27° SSW 20:31:26 27° SSW
Envisat 4.1 20:35:33 31° NNE 20:35:33 31° NNE 20:38:21 10° N
Cosmos 1980 4.0 20:31:52 10° NNW 20:36:26 49° NNE 20:36:26 49° NNE
NOSS 0 Rocket 3.7 20:31:21 10° NNW 20:37:31 74° ENE 20:37:56 71° E
Meteor 2-2 Rocket 4.1 20:31:52 10° S 20:37:36 86° E 20:43:16 10° N
COSMOS 2428 3.5 20:34:32 10° NW 20:39:59 48° WSW 20:44:03 17° S
Cosmos 2333 Rocket 2.1 20:37:37 10° NNW 20:43:24 89° WSW 20:43:38 83° SSE
Sich 1 3.8 20:40:05 10° NNW 20:44:19 50° W 20:44:34 49° WSW
Cosmos 2219 4.3 20:41:19 10° SW 20:46:47 43° WNW 20:52:15 10° N
BREEZE-M DEB (TANK) 3.8 20:46:01 10° WNW 20:52:04 40° NNW 20:52:04 40° NNW
Cosmos 2297 Rocket 4.4 20:52:15 10° SSW 20:52:50 13° SSW 20:52:50 13° SSW
Centaur D AC-29 3.6 20:56:17 10° WSW 20:59:12 15° SSW 20:59:12 15° SSW
USA 267 3.3 21:12:42 74° NW 21:12:46 74° NW 21:19:16 10° WSW
Cosmos 2219 Rocket 3.6 21:19:56 10° NW 21:24:52 32° WSW 21:25:02 32° WSW
CZ-4C R/B 4.4 21:49:45 10° W 21:53:39 19° NW 21:53:44 19° NNW
Cosmos 2237 Rocket 4.3 21:52:39 10° NW 21:55:03 22° WNW 21:55:03 22° WNW
